This demonstration page uses our WeatherBlox Daily Observations layout. Learn more.

39.29038, -76.61219

Hourly Observations for March 4, 2019

Temp ( °F °C ) Dew Point ( °F °C ) Humidity (%) Winds ( mph kmh ) Pressure ( in mb ) Visibility ( mi km ) Precip ( " mm )
12:54 am 00:54 undefined 37 2.8 32 0 82 82 undefined N/A 29.73 1007 N/A 0.01 0.254
1:54 am 01:54 undefined 36 2.2 32 0 86 86 undefined N/A 29.73 1007 N/A 0 0
2:54 am 02:54 undefined 36 2.2 31 -0.6 82 82 undefined N/A 29.72 1007 N/A 0 0
3:54 am 03:54 undefined 36 2.2 31 -0.6 82 82 undefined N/A 29.74 1007 N/A 0 0
4:54 am 04:54 undefined 36 2.2 29 -1.7 76 76 undefined N/A 29.78 1008 N/A 0 0
5:54 am 05:54 undefined 36 2.2 27 -2.8 70 70 undefined N/A 29.8 1009 N/A 0 0
6:54 am 06:54 undefined 36 2.2 26 -3.3 67 67 undefined N/A 29.84 1011 N/A 0 0
7:54 am 07:54 undefined 36 2.2 26 -3.3 67 67 undefined N/A 29.88 1012 N/A 0 0
8:54 am 08:54 undefined 37 2.8 26 -3.3 65 65 undefined N/A 29.91 1013 N/A 0 0
9:54 am 09:54 undefined 37 2.8 23 -5 57 57 undefined N/A 29.93 1014 N/A 0 0
10:54 am 10:54 undefined 38 3.3 21 -6.1 51 51 undefined N/A 29.96 1015 N/A 0 0
11:54 am 11:54 undefined 37 2.8 18 -7.8 46 46 undefined N/A 29.94 1014 N/A 0 0
12:54 pm 12:54 undefined 37 2.8 18 -7.8 46 46 undefined N/A 29.94 1014 N/A 0 0
1:54 pm 13:54 undefined 40 4.4 18 -7.8 41 41 undefined N/A 29.96 1015 N/A 0 0
2:54 pm 14:54 undefined 39 3.9 11 -11.7 31 31 undefined N/A 29.91 1013 N/A 0 0
3:54 pm 15:54 undefined 38 3.3 13 -10.6 36 36 undefined N/A 29.93 1013 N/A 0 0
4:54 pm 16:54 undefined 38 3.3 11 -11.7 33 33 undefined N/A 29.94 1014 N/A 0 0
5:54 pm 17:54 undefined 37 2.8 12 -11.1 36 36 undefined N/A 29.96 1014 N/A 0 0
6:54 pm 18:54 undefined 36 2.2 13 -10.6 39 39 undefined N/A 29.98 1015 N/A 0 0
7:54 pm 19:54 undefined 35 1.7 12 -11.1 38 38 undefined N/A 30.01 1016 N/A 0 0
8:54 pm 20:54 undefined 34 1.1 12 -11.1 40 40 undefined N/A 30.03 1017 N/A 0 0
9:54 pm 21:54 undefined 32 0 12 -11.1 43 43 undefined N/A 30.06 1018 N/A 0 0
10:54 pm 22:54 undefined 31 -0.6 11 -11.7 43 43 undefined N/A 30.07 1018 N/A 0 0
11:54 pm 23:54 undefined 30 -1.1 12 -11.1 47 47 undefined N/A 30.09 1019 N/A 0 0

Powered by AerisWeather